📊 Raw Sensor Data

Showing records 49801 to 49825 of 85,124 total

ID Distance (ft) Battery V Battery A Int Temp (°F) Int Humid (%) Ext Temp (°F) Solar V RSSI SNR Time Stamp
35336 15.2 4.02 0 62 37 56 5.10 -76 8 03/18/2025 01:15 PM
35335 15.2 4.03 5 62 37 56 5.10 -75 8 03/18/2025 01:00 PM
35334 15.2 4.10 5 61 37 56 5.10 -77 8 03/18/2025 12:45 PM
35333 15.3 4.02 0 60 37 55 5.10 -74 8 03/18/2025 12:30 PM
35332 15.2 4.02 0 60 37 55 5.10 -75 8 03/18/2025 12:15 PM
35331 -- 4.02 5 59 37 55 5.10 -74 9 03/18/2025 12:00 PM
35330 15.3 4.02 5 58 37 54 5.10 -78 7 03/18/2025 11:45 AM
35329 15.2 4.02 5 57 37 54 5.10 -76 8 03/18/2025 11:30 AM
35328 15.2 4.02 0 56 36 53 5.10 -76 8 03/18/2025 11:15 AM
35327 -- 4.02 0 55 36 53 5.10 -76 9 03/18/2025 11:00 AM
35326 -- 4.05 5 54 36 53 5.10 -78 8 03/18/2025 10:45 AM
35325 -- 4.02 5 53 36 52 5.10 -76 9 03/18/2025 10:30 AM
35324 15.3 4.07 5 51 36 52 5.10 -76 8 03/18/2025 10:15 AM
35323 -- 4.02 5 50 36 51 5.10 -78 9 03/18/2025 10:00 AM
35322 -- 4.12 5 48 36 51 5.10 -78 8 03/18/2025 09:45 AM
35321 15.3 4.02 0 47 37 50 5.10 -78 8 03/18/2025 09:30 AM
35320 15.3 4.02 5 45 37 48 5.10 -78 5 03/18/2025 09:15 AM
35319 15.2 4.02 5 43 37 47 5.10 -77 8 03/18/2025 09:00 AM
35318 15.1 4.03 5 42 37 46 5.10 -78 8 03/18/2025 08:45 AM
35317 15.2 4.02 5 41 37 44 5.10 -78 8 03/18/2025 08:30 AM
35316 15.1 4.02 0 39 37 43 5.00 -77 8 03/18/2025 08:15 AM
35315 15.1 4.05 0 38 37 43 5.10 -78 7 03/18/2025 08:00 AM
35314 15.2 4.10 17 35 39 40 4.50 -77 8 03/18/2025 07:45 AM
35313 15.1 4.03 7 35 39 38 4.50 -78 8 03/18/2025 07:30 AM
35312 15.0 3.94 -10 36 38 38 4.50 -78 8 03/18/2025 07:15 AM